Regional Weather Roundup
Issued by NWS

Home | Current Version | Previous Version | Text Only | Print | Product List | Glossary Off
Versions: 1 2 3 4 5 6 7 8 9 10 11 12 13 14 15 16 17 18 19 20 21 22 23 24 25 26 27 28 29 30 31 32 33 34 35 36 37 38 39 40 41 42 43 44 45 46 47 48 49 50

000
ASUS43 KBIS 301610
RWRND

NORTH DAKOTA REGIONAL WEATHER ROUNDUP
NATIONAL WEATHER SERVICE BISMARCK ND
1100 AM CDT SAT MAY 30 2015

NOTE: "FAIR" INDICATES FEW OR NO CLOUDS BELOW 12,000 FEET WITH NO
SIGNIFICANT WEATHER AND/OR OBSTRUCTIONS TO VISIBILITY.


NDZ001>003-009>011-017-301700-
NORTHWEST NORTH DAKOTA

CITY           SKY/WX    TMP DP  RH WIND       PRES   REMARKS
WILLISTON      SUNNY     52  35  52 E17       30.30F
MINOT          MOSUNNY   46  28  49 SE9       30.38F
MINOT AFB      MOSUNNY   47  32  55 SE10      30.38F
$$

NDZ018>021-031>035-040>046-301700-
SOUTHWEST NORTH DAKOTA

CITY           SKY/WX    TMP DP  RH WIND       PRES   REMARKS
BISMARCK       SUNNY     47  29  49 E9G17     30.39F
DICKINSON      PTSUNNY   52  36  54 SE18      30.28F
GARRISON         N/A     47  30  51 SE15      30.36F
HETTINGER ARPT PTSUNNY   49  39  68 SE13      30.29F
$$

NDZ004>008-012>016-024-026-027-054-301700-
NORTHEAST NORTH DAKOTA

CITY           SKY/WX    TMP DP  RH WIND       PRES   REMARKS
GRAND FORKS    MOSUNNY   45  28  51 N15       30.41S
GRND FRKS AFB  SUNNY     45  26  46 NE13G20   30.41S
DEVILS LAKE    SUNNY     43  23  45 E8G16     30.41S
$$

NDZ022-023-025-028>030-036>039-047>053-301700-
SOUTHEAST NORTH DAKOTA

CITY           SKY/WX    TMP DP  RH WIND       PRES   REMARKS
FARGO          SUNNY     46  34  62 N10       30.38S
JAMESTOWN      SUNNY     44  29  55 N15       30.39F
$$



USA.gov is the U.S. government's official web portal to all federal, state and local government web resources and services.